ENT7193 EPWA-HEGN

Flight info

Callsign ENT7193
Flight time N/A
Altitude 33000
Route EVINA M985 KOTEK DCT ORTEB DCT KOJOT DCT KSC DCT BADOR DCT APROB DCT ADORU UG80 EKI UL854 KULAR UT39 TOMBI M855 RASDA A16 CVO L315 SOKOT SOKOT1A
Aircraft B738/M-SDE2E3FGHIRWXY/LB1

Departure

Time N/A
Airport Warsaw Chopin Airport (EPWA)

Arrival

Time 2026-04-28 14:24
Airport Hurghada International Airport (HEGN)
Time Latitude Longitude Altitude Speed Heading
2026-04-28 13:57 31.53941 31.12187 38034 ft 455 kts 175°
2026-04-28 13:58 31.50790 31.12605 38147 ft 456 kts 172°
2026-04-28 13:58 31.47649 31.13160 38260 ft 457 kts 171°
2026-04-28 13:58 31.44508 31.13772 38435 ft 456 kts 171°
2026-04-28 13:58 31.41382 31.14386 38595 ft 456 kts 171°
2026-04-28 13:59 31.38249 31.14990 38723 ft 456 kts 171°
2026-04-28 13:59 31.35116 31.15578 38840 ft 456 kts 171°
2026-04-28 13:59 31.31976 31.16157 38959 ft 456 kts 171°
2026-04-28 13:59 31.27838 31.16914 38993 ft 457 kts 171°
2026-04-28 14:00 31.08399 31.20531 39031 ft 461 kts 171°
2026-04-28 14:00 30.82932 31.25278 39001 ft 465 kts 171°
2026-04-28 14:01 30.57556 31.29978 38979 ft 457 kts 171°
2026-04-28 14:01 30.43150 31.32632 38990 ft 448 kts 171°
2026-04-28 14:02 30.18785 31.37062 39035 ft 449 kts 171°
2026-04-28 14:02 30.09229 31.39456 39009 ft 454 kts 157°
2026-04-28 14:03 30.03797 31.43219 39022 ft 459 kts 143°
2026-04-28 14:03 29.84189 31.60169 38988 ft 468 kts 144°
2026-04-28 14:04 29.63342 31.77839 38984 ft 462 kts 144°
2026-04-28 14:04 29.42935 31.95074 38968 ft 448 kts 144°
2026-04-28 14:05 29.22871 32.11930 39036 ft 450 kts 144°
2026-04-28 14:05 29.02379 32.29061 39041 ft 464 kts 144°
2026-04-28 14:06 28.81358 32.46544 38984 ft 467 kts 144°
2026-04-28 14:06 28.60551 32.63763 38966 ft 456 kts 144°
2026-04-28 14:07 28.53540 32.69545 37849 ft 461 kts 144°
2026-04-28 14:07 28.43220 32.78039 35670 ft 454 kts 144°
2026-04-28 14:07 28.32980 32.86447 33009 ft 457 kts 144°
2026-04-28 14:07 28.22638 32.94918 30336 ft 455 kts 144°
2026-04-28 14:08 28.12523 33.03183 28150 ft 440 kts 144°
2026-04-28 14:08 28.03093 33.10872 26184 ft 424 kts 144°
2026-04-28 14:08 27.97885 33.15108 25110 ft 415 kts 144°
2026-04-28 14:08 27.88671 33.22593 23189 ft 400 kts 144°
2026-04-28 14:09 27.79794 33.29792 21320 ft 387 kts 144°
2026-04-28 14:09 27.71159 33.36780 19492 ft 376 kts 144°
2026-04-28 14:09 27.64480 33.42176 18071 ft 367 kts 144°
2026-04-28 14:09 27.62410 33.43846 17631 ft 365 kts 144°
2026-04-28 14:10 27.60355 33.45504 17192 ft 362 kts 144°
2026-04-28 14:10 27.58314 33.47151 16757 ft 360 kts 144°
2026-04-28 14:10 27.56286 33.48786 16326 ft 357 kts 144°
2026-04-28 14:10 27.54271 33.50409 15858 ft 356 kts 145°
2026-04-28 14:11 27.52284 33.52005 15391 ft 354 kts 146°
2026-04-28 14:11 27.50160 33.53388 14928 ft 352 kts 155°
2026-04-28 14:11 27.47916 33.54479 14473 ft 350 kts 158°
2026-04-28 14:11 27.45661 33.55493 14012 ft 345 kts 159°
2026-04-28 14:12 27.43463 33.56492 13529 ft 337 kts 158°
2026-04-28 14:12 27.41328 33.57495 13028 ft 329 kts 157°
2026-04-28 14:12 27.39247 33.58496 12541 ft 322 kts 157°
2026-04-28 14:12 27.37212 33.59482 12034 ft 316 kts 157°
2026-04-28 14:13 27.35200 33.60435 11540 ft 311 kts 160°
2026-04-28 14:13 27.33150 33.61138 11036 ft 306 kts 166°
2026-04-28 14:13 27.31105 33.61717 10358 ft 302 kts 168°
2026-04-28 14:13 27.29062 33.62281 9874 ft 301 kts 167°
2026-04-28 14:14 27.27032 33.62854 9344 ft 300 kts 167°
2026-04-28 14:14 27.25015 33.63438 8824 ft 299 kts 167°
2026-04-28 14:14 27.23009 33.64028 8315 ft 297 kts 167°
2026-04-28 14:14 27.21013 33.64620 7844 ft 296 kts 167°
2026-04-28 14:15 27.19029 33.65209 7362 ft 294 kts 167°
2026-04-28 14:15 27.17053 33.65795 6885 ft 292 kts 168°
2026-04-28 14:15 27.15097 33.66375 6435 ft 290 kts 168°
2026-04-28 14:15 27.13148 33.66953 5963 ft 289 kts 168°
2026-04-28 14:16 27.11213 33.67527 5492 ft 287 kts 168°
2026-04-28 14:16 27.09289 33.68098 5023 ft 285 kts 168°
2026-04-28 14:16 27.07378 33.68663 4566 ft 283 kts 168°
2026-04-28 14:16 27.05475 33.69225 4106 ft 283 kts 167°
2026-04-28 14:17 27.03574 33.69787 3654 ft 282 kts 166°
2026-04-28 14:17 27.01685 33.70355 3197 ft 281 kts 162°
2026-04-28 14:17 26.99956 33.71359 2726 ft 282 kts 140°
2026-04-28 14:17 26.98667 33.72993 2325 ft 281 kts 117°
2026-04-28 14:18 26.98003 33.74987 2243 ft 266 kts 99°
2026-04-28 14:18 26.97843 33.76982 2190 ft 249 kts 73°
2026-04-28 14:18 26.98555 33.78585 2209 ft 217 kts 49°
2026-04-28 14:18 26.99362 33.79900 2166 ft 193 kts 50°
2026-04-28 14:19 27.00056 33.81080 2194 ft 173 kts 50°
2026-04-28 14:19 27.00700 33.82194 2218 ft 174 kts 51°
2026-04-28 14:19 27.01382 33.83360 2209 ft 176 kts 47°
2026-04-28 14:19 27.02279 33.84142 2204 ft 157 kts 17°
2026-04-28 14:20 27.03321 33.84302 2196 ft 152 kts 348°
2026-04-28 14:20 27.04344 33.84027 2201 ft 150 kts 346°
2026-04-28 14:20 27.05341 33.83772 2199 ft 145 kts 345°
2026-04-28 14:20 27.06329 33.83496 2054 ft 147 kts 343°
2026-04-28 14:21 27.07319 33.83207 1860 ft 148 kts 344°
2026-04-28 14:21 27.08298 33.82918 1675 ft 143 kts 345°
2026-04-28 14:21 27.09255 33.82636 1477 ft 142 kts 346°
2026-04-28 14:21 27.10203 33.82357 1272 ft 139 kts 345°
2026-04-28 14:22 27.11123 33.82079 1044 ft 136 kts 344°
2026-04-28 14:22 27.12046 33.81782 832 ft 140 kts 347°
2026-04-28 14:22 27.12990 33.81500 676 ft 141 kts 348°
2026-04-28 14:22 27.13950 33.81230 560 ft 143 kts 347°
2026-04-28 14:23 27.14925 33.80957 354 ft 144 kts 345°
2026-04-28 14:23 27.15890 33.80670 151 ft 143 kts 347°
2026-04-28 14:23 27.16821 33.80394 51 ft 129 kts 346°
2026-04-28 14:23 27.17605 33.80171 52 ft 100 kts 345°
2026-04-28 14:24 27.18166 33.80004 50 ft 66 kts 346°
2026-04-28 14:24 27.18430 33.79942 50 ft 14 kts 19°
2026-04-28 14:24 27.18461 33.79995 49 ft 4 kts 70°
2026-04-28 14:24 27.18471 33.80025 47 ft 4 kts 70°
2026-04-28 14:25 27.18477 33.80052 49 ft 4 kts 81°
2026-04-28 14:25 27.18471 33.80080 49 ft 5 kts 120°
2026-04-28 14:25 27.18438 33.80100 49 ft 5 kts 163°
2026-04-28 14:25 27.18398 33.80113 49 ft 7 kts 163°
2026-04-28 14:26 27.18336 33.80134 48 ft 12 kts 162°
2026-04-28 14:26 27.18244 33.80164 52 ft 16 kts 165°
2026-04-28 14:26 27.18173 33.80232 55 ft 14 kts 78°
2026-04-28 14:26 27.18204 33.80340 55 ft 16 kts 76°
2026-04-28 14:27 27.18152 33.80434 54 ft 17 kts 163°
2026-04-28 14:27 27.18019 33.80474 54 ft 22 kts 165°
2026-04-28 14:27 27.17878 33.80517 56 ft 18 kts 164°
2026-04-28 14:27 27.17764 33.80550 54 ft 11 kts 165°
2026-04-28 14:28 27.17751 33.80579 55 ft 6 kts 82°
2026-04-28 14:28 27.17768 33.80632 53 ft 9 kts 73°
2026-04-28 14:28 27.17775 33.80662 56 ft 0 kts 76°